Tracking 19246 objects as of 19-Aug-2018
HD Live streaming from Space Station
objects crossing your sky now

COSMOS 1862

Track COSMOS 1862 now!
10-day predictions
COSMOS 1862 is classified as:


NORAD ID: 18152
Int'l Code: 1987-055A
Perigee: 546.4 km
Apogee: 565.0 km
Inclination: 82.5 °
Period: 95.6 minutes
Semi major axis: 6926 km
RCS: 8.6433 m2 (large)
Launch date: July 1, 1987
Source: Commonwealth of Independent States (former USSR) (CIS)
Launch site: PLESETSK MISSILE AND SPACE COMPLEX (PKMTR)
aabbcc
Your satellite tracking list
Your tracking list is empty




NASA's NSSDC Master Catalog

Two Line Element Set (TLE):
1 18152U 87055A   18231.46857650 -.00000106  00000-0 -92787-5 0  9995
2 18152  82.4932 238.0605 0013405 183.4931 176.6205 15.05955332694119
Source of the keplerian elements: AFSPC